Baltimore, MD

8:25 PM EDT on August 21, 2017 (GMT -0400)
Baltimore-Washington International

Weather History for KBWI - February, 2014

Change the Weather History Date:

Friday, February 7, 2014

  Actual Average Record
Temperature  
Mean Temperature 32 °F 34 °F  
Max Temperature 42 °F 43 °F 72 °F (2017)
Min Temperature 22 °F 25 °F 6 °F (1895)
Degree Days  
Heating Degree Days 33 31  
Month to date heating degree days 207 217  
Since 1 July heating degree days 3072 2993  
Cooling Degree Days 0 0  
Month to date cooling degree days 0 0  
Year to date cooling degree days 0 0  
Moisture  
Dew Point 19 °F    
Average Humidity 61    
Maximum Humidity 81    
Minimum Humidity 40    
Precipitation  
Precipitation 0.00 in 0.10 in 1.64 in (1965)
Month to date precipitation 1.94 0.72  
Year to date precipitation 4.65 3.77  
Snow  
Snow 0.00 in 0.30 in 10.10 in (1967)
Month to date snowfall 0.0 2.3  
Since 1 July snowfall 12.7 12.5  
Snow Depth 0.00 in    
Sea Level Pressure  
Sea Level Pressure 30.31 in    
Wind  
Wind Speed 3 mph (WNW)    
Max Wind Speed 13 mph    
Max Gust Speed 18 mph    
Visibility 10 miles    
Events      
T = Trace of Precipitation, MM = Missing Value Source: NWS Daily Summary

Daily Weather History Graph

Daily Weather History Graph

Search for Another Location

Airport or City:

Trip Planner

Search our weather history database for the weather conditions in past years. The results will help you decide how hot, cold, wet, or windy it might be!

Date:

Astronomy

Feb. 07, 2014 Rise Set
Actual Time 7:07 AM EST 5:34 PM EST
Civil Twilight 6:39 AM EST 6:02 PM EST
Nautical Twilight 6:08 AM EST 6:34 PM EST
Astronomical Twilight 5:36 AM EST 7:05 PM EST
Moon 11:44 AM EST (2/7) 1:21 AM EST (2/7)
Length of Visible Light 11h 22m
Length of Day
10h 27m
First Quarter, 59% of the Moon is Illuminated
Feb 7
First Quarter
Feb 14
Full
Feb 22
Last Quarter
Mar 1
New
Mar 8
First Quarter

Hourly Weather History & Observations

Time (EST) Temp. Windchill Dew Point Humidity Pressure Visibility Wind Dir Wind Speed Gust Speed Precip Events Conditions
12:54 AM 28.9 °F - 19.0 °F 67% 30.28 in 10.0 mi Calm Calm - N/A   Overcast
1:54 AM 28.0 °F - 19.9 °F 72% 30.29 in 10.0 mi Calm Calm - N/A   Overcast
2:54 AM 28.0 °F - 19.9 °F 72% 30.29 in 10.0 mi Calm Calm - N/A   Overcast
3:54 AM 27.0 °F - 19.0 °F 72% 30.29 in 10.0 mi Calm Calm - N/A   Mostly Cloudy
4:54 AM 25.0 °F - 19.0 °F 78% 30.31 in 10.0 mi Calm Calm - N/A   Scattered Clouds
5:54 AM 24.1 °F - 19.0 °F 81% 30.31 in 10.0 mi Calm Calm - N/A   Partly Cloudy
6:54 AM 23.0 °F - 18.0 °F 81% 30.34 in 10.0 mi Calm Calm - N/A   Partly Cloudy
7:54 AM 25.0 °F - 19.9 °F 81% 30.35 in 10.0 mi Calm Calm - N/A   Partly Cloudy
8:54 AM 30.0 °F - 21.0 °F 69% 30.35 in 10.0 mi Calm Calm - N/A   Partly Cloudy
9:54 AM 34.0 °F - 19.0 °F 54% 30.35 in 10.0 mi Calm Calm - N/A   Scattered Clouds
10:54 AM 35.1 °F 30.1 °F 18.0 °F 50% 30.35 in 10.0 mi SW 5.8 mph - N/A   Scattered Clouds
11:54 AM 37.9 °F 33.5 °F 18.0 °F 45% 30.32 in 10.0 mi Variable 5.8 mph - N/A   Scattered Clouds
12:54 PM 39.0 °F 34.0 °F 18.0 °F 43% 30.27 in 10.0 mi SW 6.9 mph - N/A   Scattered Clouds
1:54 PM 39.9 °F 35.1 °F 18.0 °F 41% 30.26 in 10.0 mi WSW 6.9 mph - N/A   Scattered Clouds
2:54 PM 41.0 °F 36.4 °F 19.9 °F 43% 30.26 in 10.0 mi WSW 6.9 mph - N/A   Mostly Cloudy
3:54 PM 39.9 °F 35.1 °F 19.0 °F 43% 30.26 in 10.0 mi WSW 6.9 mph - N/A   Mostly Cloudy
4:54 PM 37.9 °F 32.7 °F 19.0 °F 47% 30.27 in 10.0 mi WNW 6.9 mph - N/A   Mostly Cloudy
5:54 PM 35.1 °F 31.0 °F 18.0 °F 50% 30.31 in 10.0 mi NNW 4.6 mph - N/A   Scattered Clouds
6:54 PM 34.0 °F 31.0 °F 18.0 °F 52% 30.33 in 10.0 mi NE 3.5 mph - N/A   Scattered Clouds
7:54 PM 30.0 °F - 19.0 °F 64% 30.33 in 10.0 mi Calm Calm - N/A   Partly Cloudy
8:54 PM 28.9 °F - 19.0 °F 67% 30.33 in 10.0 mi Calm Calm - N/A   Clear
9:54 PM 30.0 °F 26.5 °F 18.0 °F 61% 30.33 in 10.0 mi NNW 3.5 mph - N/A   Partly Cloudy
10:54 PM 28.0 °F - 17.1 °F 63% 30.34 in 10.0 mi Calm Calm - N/A   Scattered Clouds
11:54 PM 27.0 °F 23.0 °F 17.1 °F 66% 30.34 in 10.0 mi North 3.5 mph - N/A   Mostly Cloudy